This demonstration page uses our WeatherBlox Daily Observations layout. Learn more.

Left ArrowRight Arrow

Hourly Observations for May 13, 2016

Temp ( °F °C ) Dew Point ( °F °C ) Humidity (%) Winds ( mph kmh ) Pressure ( in mb ) Visibility ( mi km ) Precip ( " mm )
12:51 am 00:51 Clear 69 20.6 20 -6.7 15 15 ESE 5 7 29.89 1012 10 16 0.00 0.00
1:51 am 01:51 Clear 67 19.4 18 -7.8 15 15 E 6 9 29.89 1012 10 16 0.00 0.00
2:51 am 02:51 Clear 68 20 24 -4.4 19 19 E 8 13 29.90 1012 10 16 0.00 0.00
3:51 am 03:51 Clear 69 20.6 31 -0.6 24 24 E 7 11 29.90 1012 10 16 0.00 0.00
4:51 am 04:51 Clear 70 21.1 33 0.6 26 26 E 9 15 29.91 1013 10 16 0.00 0.00
5:51 am 05:51 Sunny 69 20.6 25 -3.9 19 19 SE 12 19 29.93 1014 10 16 0.00 0.00
6:51 am 06:51 Sunny 73 22.8 28 -2.2 19 19 SE 10 17 29.95 1014 10 16 0.00 0.00
7:51 am 07:51 Sunny 79 26.1 32 0 18 18 SE 13 20 29.97 1015 10 16 0.00 0.00
8:51 am 08:51 Sunny 82 27.8 37 2.8 20 20 S 7 11 29.97 1015 10 16 0.00 0.00
9:51 am 09:51 Sunny 85 29.4 42 5.6 22 22 VRB 6 9 29.96 1015 10 16 0.00 0.00
10:51 am 10:51 Sunny 90 32.2 41 5 18 18 E 10 17 29.93 1014 10 16 0.00 0.00
11:51 am 11:51 Sunny 92 33.3 38 3.3 15 15 SE 9 15 29.90 1013 10 16 0.00 0.00
12:51 pm 12:51 Sunny 95 35 30 -1.1 10 10 VRB 3 6 29.86 1011 10 16 0.00 0.00
1:51 pm 13:51 Sunny 97 36.1 24 -4.4 7 7 undefined N/A 29.83 1010 10 16 0.00 0.00
2:51 pm 14:51 Sunny 98 36.7 24 -4.4 7 7 NNE 5 7 29.80 1009 10 16 0.00 0.00
3:51 pm 15:51 Sunny 97 36.1 24 -4.4 7 7 N 8 13 29.77 1008 10 16 0.00 0.00
4:51 pm 16:51 Sunny 97 36.1 25 -3.9 7 7 W 10 17 29.76 1008 10 16 0.00 0.00
5:51 pm 17:51 Sunny 95 35 25 -3.9 8 8 WNW 7 11 29.75 1008 10 16 0.00 0.00
6:51 pm 18:51 Sunny 92 33.3 25 -3.9 9 9 WNW 15 24 29.76 1008 10 16 0.00 0.00
7:51 pm 19:51 Clear 87 30.6 25 -3.9 10 10 NW 13 20 29.79 1009 10 16 0.00 0.00
8:51 pm 20:51 Clear 85 29.4 25 -3.9 11 11 NW 13 20 29.79 1009 10 16 0.00 0.00
9:51 pm 21:51 Clear 82 27.8 24 -4.4 12 12 W 9 15 29.81 1010 10 16 0.00 0.00
10:51 pm 22:51 Clear 80 26.7 25 -3.9 13 13 NW 9 15 29.81 1009 10 16 0.00 0.00
11:51 pm 23:51 Clear 78 25.6 24 -4.4 13 13 NW 7 11 29.81 1010 10 16 0.00 0.00

Powered by AerisWeather